Regional Weather Roundup
Issued by NWS Kansas City/Pleasant Hill, MO

Home | Current Version | Previous Version | Text Only | Print | Product List | Glossary On
Versions: 1 2 3 4 5 6 7 8 9 10 11 12 13 14 15 16 17 18 19 20 21 22 23 24 25 26 27 28 29 30 31 32 33 34 35 36 37 38 39 40 41 42 43 44 45 46 47 48 49 50
000
ASUS43 KEAX 171310
RWREAX

WEATHER ROUNDUP FOR EASTERN KANSAS AND NORTHWEST MISSOURI
NATIONAL WEATHER SERVICE KANSAS CITY/PLEASANT HILL MO
700 AM CST TUE JAN 17 2017

KSZ040-057-103>105-MOZ028-029-037-043-171400-
...KANSAS CITY METROPOLITAN AREA...

CITY           SKY/WX    TMP DP  RH WIND       PRES   REMARKS
K.C. INTL      CLOUDY    34  33  96 W8        30.04R WCI  27
K.C. DOWNTOWN  CLOUDY    35  34  96 W6        30.05R FOG     WCI  30
LEES SUMMIT    CLOUDY    35  34  96 W7G20     30.04R WCI  29
OLATHE - IXD   CLOUDY    34  33  96 NW10      30.05S FOG     WCI  26
OLATHE - OJC   CLOUDY    33  33 100 NW8       30.04R FOG     WCI  26
LAWRENCE       CLOUDY    34  34 100 W7        30.06S WCI  28

$$

MOZ001>008-011>017-020>025-030>033-038>040-044>046-053-054-171400-
...NORTHERN AND CENTRAL MISSOURI...

CITY           SKY/WX    TMP DP  RH WIND       PRES   REMARKS
ST. JOSEPH     CLOUDY    33  33 100 NW9       30.04R FOG     WCI  25
MOSBY          CLOUDY    34  34 100 W6        30.04R WCI  29
WARRENSBURG    CLOUDY    34  34 100 W7        30.05R WCI  28
WHITEMAN AFB   DRIZZLE   36  36 100 W9        30.03R WCI  29
CLINTON        CLOUDY    36  36 100 W10       30.06R FOG     WCI  28
SEDALIA        CLOUDY    37  36  96 W8        30.04R FOG     WCI  31
WARSAW         NOT AVBL
CHILLICOTHE      N/A     35  33  92 W5        30.02R WCI  31
KIRKSVILLE     CLOUDY    35  34  96 W6        29.97R WCI  30

$$

MOZ041-047>049-056>058-063>065-088>090-097-171400-
...EASTERN AND SOUTHERN MISSOURI...

CITY           SKY/WX    TMP DP  RH WIND       PRES   REMARKS
ST. LOUIS INTL CLOUDY    44  37  76 W14       29.97R
SPIRIT OF STL  CLOUDY    43  39  86 SW12      29.98R
COLUMBIA       CLOUDY    38  37  97 W12       30.01R FOG     WCI  30
JEFFERSON CITY CLOUDY    40  37  89 W12       30.02R WCI  33
ROLLA          CLOUDY    39  38  96 W14       29.99R WCI  31
OSAGE BEACH    CLOUDY    39  36  89 SW9       30.04R WCI  33
SPRINGFIELD    CLOUDY    39  35  86 W10       30.06R WCI  32
BRANSON        CLOUDY    39  36  87 W5        30.07R
JOPLIN         CLOUDY    37  36  96 W6        30.09S WCI  32
WEST PLAINS    CLOUDY    40  37  89 W8        30.04R WCI  34

$$

IAZ060-094-KSZ022-034>040-054-083-096-NEZ052-066-093-171400-
...KANSAS...SOUTHEAST NEBRASKA AND IOWA...

CITY           SKY/WX    TMP DP  RH WIND       PRES   REMARKS
TOPEKA         CLOUDY    35  31  85 W5        30.06R WCI  31
MANHATTAN      CLOUDY    34  31  88 W5        30.07S WCI  30
EMPORIA        CLOUDY    33  32  96 NW7       30.08R WCI  27
CHANUTE        CLOUDY    36  34  92 W7        30.10R FOG     WCI  30
WICHITA        MOCLDY    34  32  92 NW7       30.11R WCI  28
OMAHA          FLURRIES  28  24  85 NW12      30.04R WCI  18
LINCOLN        PTCLDY    25  19  78 NW8       30.09R WCI  16
FALLS CITY     CLOUDY    32  30  92 NW13      30.04R WCI  22
LAMONI         CLOUDY    33  33 100 NW9       29.97R FOG     WCI  25
DES MOINES     DRIZZLE   34  32  92 NW9       29.97R FOG     WCI  27

$$




USA.gov is the U.S. government's official web portal to all federal, state and local government web resources and services.